Vorticity
15 16 15 14 13 12 12 13 13 13 15 14 13 10 10 9 6 9 10 8 8 7 6 4 7 6 1 1 3 3 4 2 3 5 4 6 6 6 8 5 2 3 2 3 6 5 5 5 6 7 7 7 6 6 5 4 3 3 4 4 5 5 5 4 3 4 6 6 5 5 5 5 6 8 7 6 6 5 6 7 8 8 7 7 7 6 6 7 8 8 7 8 8 8 9 9 9
8 8 8 7 7 6 7 9 8 12 15 13 12 10 8 8 7 8 7 6 8 7 8 6 6 5 3 3 5 4 4 5 6 7 7 8 7 6 6 1 1 4 4 5 6 5 4 5 6 7 8 8 7 6 5 4 4 4 4 5 5 5 5 3 2 4 6 5 5 5 5 5 7 9 7 6 6 5 6 7 7 7 7 6 7 6 6 8 8 7 7 7 8 9 10 9 8
7 7 7 7 6 6 8 9 9 14 16 11 9 8 7 8 7 5 7 6 3 4 6 4 4 6 6 5 5 5 6 7 5 7 7 7 5 3 3 1 3 5 6 6 6 6 5 6 7 8 8 9 8 6 5 3 3 4 5 5 6 5 4 2 2 4 6 5 5 5 5 4 7 9 7 6 6 5 6 7 7 6 6 6 6 6 7 8 8 6 6 7 8 10 10 9 7
9 8 8 8 8 8 11 12 11 11 10 8 7 7 6 6 4 3 5 3 2 4 3 4 4 4 5 5 7 8 6 4 5 7 5 5 4 4 4 5 6 5 6 6 6 6 6 7 8 9 9 9 8 6 5 3 4 5 5 5 6 5 3 2 2 5 5 5 5 5 5 4 8 9 7 6 5 5 6 7 7 6 5 5 6 6 7 8 7 6 6 7 9 11 9 8 7
10 9 9 9 10 10 11 13 11 7 6 6 6 6 4 3 3 2 1 1 3 2 6 10 6 3 4 5 6 6 4 3 5 6 5 5 5 5 6 6 7 7 9 6 5 7 7 8 8 9 9 8 7 5 4 3 4 4 5 6 5 4 3 2 3 5 4 4 5 5 5 5 8 9 7 6 5 5 6 7 7 6 5 5 6 6 7 8 7 6 6 8 10 11 8 7 7
11 10 11 11 11 11 10 11 9 6 7 6 5 5 3 2 3 3 2 4 5 5 10 7 2 5 6 4 3 4 6 5 4 5 5 6 7 6 6 6 7 8 8 7 7 8 8 9 9 10 9 8 7 5 4 4 5 5 5 5 5 4 3 2 3 5 5 5 5 5 6 6 8 8 6 5 5 6 6 6 6 5 5 6 6 6 7 8 7 6 7 8 10 11 10 8 7
11 10 11 11 10 9 7 7 6 4 6 5 4 4 3 4 4 4 4 5 6 8 7 2 5 9 7 2 -1 5 8 4 4 5 4 5 5 5 5 6 6 7 9 10 9 9 10 10 9 9 8 7 7 5 4 5 5 5 5 5 5 3 2 4 6 6 5 5 5 6 6 6 8 8 7 5 4 6 6 6 6 5 6 6 5 6 7 8 7 7 6 9 10 10 10 8 7
10 9 9 8 7 7 6 6 6 4 5 6 4 3 4 5 6 6 4 4 4 5 3 2 8 8 4 2 -0 4 6 5 5 4 5 4 5 7 7 6 6 7 8 8 9 10 10 9 9 9 9 8 7 6 5 6 6 5 5 5 4 2 3 7 8 5 4 5 6 7 7 7 8 8 6 4 4 6 6 6 5 5 6 6 5 5 7 8 7 7 6 8 11 11 8 6 6
8 8 7 6 4 5 6 6 8 6 4 5 4 1 1 3 5 6 6 8 5 4 5 4 6 5 4 4 3 4 5 6 6 5 5 5 6 7 7 6 7 9 8 7 8 9 9 10 11 9 8 7 7 6 6 5 6 6 6 5 2 3 6 7 5 3 5 6 7 7 7 7 7 7 6 4 5 6 6 6 5 6 6 5 5 6 7 8 7 8 7 6 10 11 7 5 5
7 6 6 5 4 5 5 4 5 4 4 3 4 3 2 1 2 4 5 7 5 3 4 3 3 4 4 5 5 6 6 7 6 6 4 4 5 6 6 4 6 8 7 7 8 10 11 12 11 9 8 7 7 7 7 7 6 5 4 2 2 5 5 4 3 4 6 7 7 7 6 6 7 8 5 4 5 6 6 6 6 7 6 5 5 6 7 8 7 7 7 5 9 12 8 5 4
5 6 5 3 4 5 5 4 3 4 5 4 4 5 4 2 1 1 1 1 2 4 4 4 3 2 4 5 4 5 7 8 6 5 4 3 4 6 5 5 7 7 6 7 8 10 11 11 9 8 8 8 8 8 8 7 4 2 1 2 4 5 4 2 4 6 7 7 7 7 7 6 8 8 4 3 5 6 6 6 7 7 6 5 5 6 7 8 7 7 6 6 7 10 11 7 3
6 6 6 6 5 6 7 7 7 7 6 6 5 5 5 3 3 2 0 1 2 5 5 5 5 3 4 4 3 5 7 6 5 5 5 2 5 8 7 7 8 7 8 9 9 9 7 5 4 5 6 7 6 6 7 5 1 0 1 4 6 5 4 4 5 6 6 6 8 8 7 8 9 6 3 4 6 7 6 6 7 7 5 5 6 7 8 7 7 6 6 7 7 8 11 9 5
7 6 6 6 6 7 10 10 8 8 7 6 5 5 5 5 5 2 0 2 5 6 7 6 5 5 6 5 4 5 6 5 4 5 3 1 5 8 10 13 12 11 10 8 6 4 2 2 3 6 7 5 4 6 7 3 1 2 4 5 6 6 5 5 5 6 6 7 9 9 7 9 9 4 3 5 7 7 6 6 7 7 6 6 7 7 7 7 6 6 5 7 8 7 8 9 8
6 7 7 6 10 12 10 9 9 8 7 6 5 4 4 5 4 4 4 5 8 7 6 6 6 7 7 6 5 4 4 4 6 10 11 12 11 8 7 8 7 6 5 3 2 1 3 6 7 7 6 5 8 10 7 2 2 3 4 6 6 6 5 4 5 6 7 9 10 9 9 10 6 3 4 6 8 7 5 6 6 7 6 6 8 7 7 6 5 6 5 6 7 6 6 7 8
6 6 7 8 13 14 8 7 8 7 6 6 7 6 6 7 6 7 6 4 6 5 6 10 10 9 7 5 4 3 4 3 6 11 11 11 12 11 9 8 5 5 4 2 4 7 8 7 7 7 5 7 9 7 3 1 4 5 5 7 6 5 5 5 6 7 8 10 12 9 9 8 5 4 4 6 7 6 5 5 6 6 6 7 8 7 6 6 6 5 4 5 5 4 4 6 6
5 4 9 13 11 8 4 5 6 6 7 7 6 7 7 8 8 7 5 4 5 4 5 10 8 6 6 6 5 4 4 4 5 4 3 9 14 15 12 7 6 10 9 7 9 7 6 6 6 4 4 10 10 4 1 1 4 6 6 5 5 5 4 5 6 7 9 11 11 9 9 7 5 4 3 6 6 6 5 4 6 5 6 9 8 7 6 6 7 5 4 4 4 4 5 6 5
4 7 13 13 6 1 1 2 3 4 4 4 4 4 5 6 6 5 4 4 4 6 6 4 4 4 4 4 4 6 5 4 4 0 4 9 10 19 24 16 12 14 8 6 7 4 7 8 5 6 8 10 4 -2 -2 7 15 11 9 8 8 7 6 7 6 7 10 10 9 7 8 7 5 4 3 5 6 7 6 6 7 4 7 10 8 6 6 6 6 6 5 6 6 5 4 2 -0
7 12 11 7 6 2 2 4 3 4 4 4 5 4 5 5 5 4 4 4 5 10 10 4 4 4 4 5 5 6 6 4 3 3 8 4 -4 5 15 15 16 13 5 5 2 2 9 7 5 1 1 8 15 30 29 21 25 21 19 19 17 16 14 15 10 7 9 7 7 7 8 8 5 4 4 5 6 7 7 8 6 6 11 9 7 6 5 6 6 6 6 7 6 4 5 -1 -2
8 11 6 1 3 2 4 6 5 8 7 7 7 5 7 6 4 4 5 9 9 9 8 5 4 3 4 6 5 6 6 5 4 4 7 7 4 2 2 7 10 7 9 14 6 2 2 -0 -0 -3 16 26 11 30 40 20 15 16 19 20 18 16 16 24 18 7 5 5 6 7 8 7 6 5 7 7 6 7 8 8 7 9 12 7 7 7 5 7 7 7 6 8 6 4 7 1 1
7 9 5 4 7 7 8 7 6 8 6 6 7 6 7 6 7 9 8 11 9 6 5 4 2 2 1 2 4 5 6 6 4 4 6 9 13 10 9 11 9 6 4 4 4 9 12 7 0 7 33 21 -19 -7 12 1 -4 1 13 19 20 17 16 27 23 9 5 7 7 6 8 6 4 5 7 9 8 8 8 7 10 12 8 5 8 7 5 7 7 7 6 8 8 6 6 5 7
11 11 7 6 6 5 6 6 6 6 6 6 7 8 8 7 11 13 9 8 9 6 6 5 2 3 5 6 6 4 4 4 3 6 8 8 10 10 11 10 9 9 2 -1 2 2 9 15 14 16 5 -26 -30 3 13 2 -4 -3 6 14 17 14 13 22 21 13 9 9 8 6 8 7 4 4 5 7 7 9 10 10 13 11 5 6 9 6 6 7 6 8 7 8 10 9 7 8 10
13 8 0 1 1 2 5 7 7 7 8 8 9 10 10 10 12 11 6 5 8 6 6 6 4 5 7 8 6 3 3 3 6 7 5 6 9 7 7 10 11 13 10 10 9 -2 -1 5 5 10 2 -16 -20 -7 7 12 11 8 7 8 8 7 8 12 11 8 8 9 11 8 8 7 5 5 6 7 8 11 14 13 12 8 6 10 10 6 6 6 7 8 8 9 8 8 8 7 5
14 6 5 8 6 6 6 5 5 5 5 6 9 9 7 8 7 6 3 1 6 7 6 5 5 5 3 4 4 3 4 6 8 7 6 9 11 6 4 7 9 14 14 12 12 6 6 4 -5 -2 14 26 11 -6 3 11 11 11 9 9 9 8 7 5 2 1 2 5 9 10 8 8 6 7 8 8 9 9 8 9 8 7 9 11 8 6 5 5 6 7 8 8 7 7 9 8 5
13 8 10 10 6 6 6 5 6 6 8 8 9 8 6 6 5 7 6 5 7 7 6 5 4 4 2 3 4 4 6 8 9 8 8 9 8 8 7 6 8 12 13 12 14 11 8 8 6 0 -5 7 15 10 10 11 12 10 6 6 6 8 7 5 4 3 1 1 6 10 8 7 7 6 7 7 8 5 3 6 8 8 10 9 6 5 5 5 7 8 7 6 6 7 9 9 8
8 8 8 6 8 9 8 9 8 8 11 13 12 9 9 8 7 9 11 9 9 6 5 5 4 4 3 4 6 7 8 8 9 9 10 10 8 10 12 11 12 12 9 8 11 13 11 6 5 2 -11 -13 3 12 13 14 13 9 6 5 1 4 9 8 6 5 3 1 6 9 7 7 7 6 6 6 6 6 5 7 10 10 10 7 5 5 5 6 8 7 7 6 6 7 8 7 6
6 3 3 3 5 6 6 7 8 8 8 10 13 12 10 8 7 8 9 6 5 5 4 5 4 4 4 4 7 9 10 11 10 10 11 10 10 13 16 15 13 14 15 10 6 7 7 6 5 4 -1 -4 2 11 14 12 11 10 8 7 6 6 9 7 5 7 5 3 8 9 7 7 7 7 7 7 9 11 10 9 11 9 7 6 5 6 7 7 7 7 7 7 7 7 7 7 5
4 -2 1 4 3 3 5 7 9 11 9 9 9 8 8 8 10 10 8 5 5 7 5 5 5 4 5 8 11 10 10 11 11 11 11 11 11 12 15 16 16 17 18 12 6 5 6 7 5 1 2 3 4 10 14 14 11 8 5 7 9 8 7 4 4 6 4 3 6 6 7 9 7 7 9 10 13 16 12 9 11 7 4 6 6 7 7 7 6 6 8 8 8 7 6 7 6
8 5 8 10 8 6 9 14 14 11 10 9 6 5 8 9 7 5 6 8 9 9 6 6 7 6 9 14 14 12 11 10 12 14 13 12 11 12 16 18 17 15 13 12 10 9 9 7 3 2 5 6 5 8 13 15 10 6 7 6 6 8 9 8 8 8 9 7 4 4 8 10 7 7 11 11 10 14 12 10 11 6 5 7 6 8 7 7 7 7 10 9 8 7 5 8 8
10 9 10 12 14 16 19 15 9 7 8 8 6 6 6 6 5 3 4 6 6 7 7 8 8 8 11 13 12 13 13 12 14 17 16 13 10 12 14 10 6 6 8 9 9 9 8 8 6 6 6 6 7 9 12 15 11 8 8 6 5 5 6 10 12 12 15 10 5 8 10 8 7 7 9 10 9 8 12 17 14 6 6 8 7 8 7 7 8 9 9 8 7 7 7 8 8
8 7 8 11 15 18 14 7 6 9 8 5 5 5 4 5 7 6 4 4 3 6 7 6 7 8 10 12 14 16 14 12 13 16 15 10 9 10 6 2 2 4 6 7 9 10 11 11 9 9 8 8 11 12 12 13 12 8 8 8 7 5 5 9 11 14 16 8 6 11 9 6 6 7 8 10 11 9 15 19 10 5 7 7 7 8 9 9 8 8 7 7 8 8 8 8 6
7 6 9 15 14 8 6 6 9 8 5 4 3 4 7 6 5 6 6 6 6 9 10 8 10 11 10 13 15 14 10 9 13 17 16 10 8 8 5 5 6 3 5 8 10 9 8 7 7 8 9 9 10 11 10 12 14 11 9 8 7 9 10 9 8 10 13 10 10 12 7 4 5 7 8 11 15 13 15 11 -1 2 8 7 8 9 10 9 7 7 8 8 10 9 8 8 8
7 9 16 21 12 4 7 9 8 5 3 5 3 4 9 8 6 10 11 9 5 6 9 9 11 12 11 12 10 9 8 9 11 13 15 13 11 9 8 8 7 4 7 11 9 5 3 4 5 7 7 7 7 8 9 12 16 15 13 11 10 10 6 5 7 7 13 15 12 11 6 3 5 7 8 11 17 16 12 6 -1 1 6 8 9 10 10 8 6 7 9 10 10 9 8 8 10
6 9 14 15 10 7 8 7 5 6 7 7 4 -0 5 9 8 10 12 10 9 9 11 9 9 10 10 9 7 9 9 7 8 10 10 11 13 12 10 8 7 6 9 10 4 1 2 4 7 8 5 5 7 9 10 12 13 13 15 14 13 14 11 9 8 7 16 17 11 9 6 4 6 8 8 9 17 22 13 5 4 2 5 10 9 9 8 6 7 7 9 11 9 7 7 8 9
9 11 11 9 8 6 5 6 5 4 3 3 2 -2 4 15 14 12 11 11 14 15 12 9 8 12 12 8 8 9 6 4 6 9 7 7 11 13 11 8 6 6 7 7 2 1 5 7 8 8 6 7 8 9 11 12 10 9 11 11 12 16 15 11 11 15 21 18 9 6 5 5 8 9 6 6 17 22 9 -1 2 4 7 10 8 9 7 6 7 7 9 11 9 7 6 7 7
12 11 11 6 4 2 -1 0 0 -0 -1 -0 3 1 4 14 13 9 13 13 14 13 10 9 8 11 11 5 6 7 3 5 7 8 9 8 10 12 11 7 4 5 6 4 3 3 5 5 5 7 6 6 8 11 14 11 8 11 12 10 14 18 12 6 11 25 25 14 7 5 5 5 8 11 7 7 12 9 3 1 2 6 10 9 8 8 7 7 7 6 8 9 7 6 5 6 6
11 6 5 2 2 -0 -7 -7 -3 -1 1 2 5 -1 -3 9 11 8 13 11 7 8 7 8 7 6 6 3 5 6 4 8 9 8 9 9 11 10 10 9 5 5 5 4 5 5 5 3 5 9 6 5 8 8 10 10 8 10 8 8 18 17 6 2 12 30 25 8 6 5 4 6 7 9 8 9 8 2 7 10 4 7 10 8 8 9 8 8 7 6 8 8 5 5 6 6 5
10 6 3 3 7 4 -3 0 2 0 1 3 5 6 3 4 3 4 14 15 12 12 6 4 7 4 2 4 5 5 9 12 7 6 8 8 10 12 11 10 8 6 4 4 6 4 4 3 4 8 6 6 7 -1 3 15 15 14 11 11 20 12 -1 2 12 26 21 5 6 5 4 9 6 8 12 11 9 5 8 9 7 9 9 7 9 9 8 7 7 7 8 7 5 5 8 6 4
5 6 5 7 9 4 1 4 6 8 9 7 6 9 5 -0 1 5 10 15 14 8 1 0 4 2 2 7 7 6 10 11 3 1 7 7 6 10 11 11 10 9 6 5 4 3 3 2 2 5 8 7 5 3 5 11 10 12 14 13 26 22 4 9 16 19 19 8 6 7 8 10 7 13 19 12 8 7 5 6 8 9 8 9 10 7 7 6 7 8 7 7 5 6 7 5 5
4 6 6 8 7 1 2 7 7 7 7 7 5 5 5 5 13 11 -1 3 5 -4 -2 3 2 3 7 9 8 6 8 11 7 1 3 8 9 9 11 12 10 8 7 6 4 3 1 -1 -0 5 11 9 7 8 7 8 5 8 13 11 27 31 7 9 20 16 16 10 5 7 5 6 9 10 9 5 6 7 8 8 6 7 9 10 8 5 6 7 8 8 6 5 5 6 5 5 6
7 5 4 8 6 -0 5 11 6 -2 -3 2 1 1 7 6 9 8 -2 8 12 1 5 13 7 6 9 10 9 6 5 8 9 4 2 6 10 11 12 12 11 8 7 7 6 6 5 4 6 7 10 11 12 9 6 9 5 8 17 10 24 39 17 11 20 13 13 9 5 7 3 4 7 4 6 6 5 9 12 9 7 10 10 8 6 4 7 8 7 8 7 5 5 6 5 5 7
6 1 2 7 7 6 9 10 6 1 2 4 -0 -0 2 -2 0 4 6 19 23 11 9 10 7 9 8 7 9 10 11 10 8 4 1 2 9 19 20 15 11 9 6 6 8 10 10 9 11 9 8 10 12 8 5 7 2 6 15 12 26 41 22 12 15 12 15 9 2 5 5 6 6 4 9 7 3 10 15 12 10 11 9 7 6 4 7 8 6 7 8 8 6 5 6 5 6
6 1 5 9 9 12 11 10 10 9 6 4 7 10 3 -3 3 2 3 14 18 19 18 5 2 8 1 -6 -2 1 3 6 7 7 6 7 12 19 25 22 17 16 14 12 11 12 12 10 9 8 7 9 11 8 5 6 5 5 7 11 23 22 7 10 14 11 14 9 2 2 3 7 8 7 8 6 5 11 15 13 10 9 9 7 5 5 7 8 7 6 7 7 5 4 5 6 6
5 3 9 9 9 14 10 7 11 8 2 -1 4 12 6 3 5 -5 -3 7 3 5 15 8 5 8 1 -2 1 -3 -5 -1 5 10 11 9 5 5 16 20 14 15 18 17 14 10 9 8 7 6 7 10 11 8 6 7 8 7 6 10 14 12 12 10 7 11 15 11 6 3 4 9 9 7 8 7 9 14 14 10 7 9 9 6 5 6 7 8 7 6 6 6 4 4 5 5 6
4 3 7 6 10 19 10 2 5 2 0 0 1 5 3 3 2 -6 2 12 -2 -9 2 10 12 10 6 8 7 3 5 6 5 8 7 4 3 5 11 12 7 6 10 15 18 14 10 11 11 8 10 13 10 8 8 9 11 7 6 9 8 18 29 13 4 15 15 8 6 4 8 13 11 8 8 8 8 11 11 7 8 11 9 6 6 6 7 8 7 5 6 5 3 4 5 5 6
4 4 6 8 9 10 8 6 5 2 2 1 -1 -1 1 1 1 4 7 7 3 -1 1 9 14 12 10 6 4 9 11 6 3 4 4 3 6 8 9 10 11 7 3 6 11 15 13 11 9 5 7 13 10 9 9 8 13 10 6 12 8 10 19 11 9 21 17 9 7 7 10 11 8 5 6 9 8 7 8 8 10 10 7 6 7 6 6 7 6 6 5 4 3 4 5 5 7
10 9 7 12 10 3 4 9 5 3 2 -2 -3 -2 1 1 -1 4 2 -1 8 6 -1 10 15 11 14 9 7 14 11 1 -0 2 2 0 2 3 0 5 12 9 5 3 4 11 13 12 11 5 6 16 15 11 9 6 10 12 10 14 8 3 9 7 6 18 23 16 6 8 13 9 5 7 8 10 10 9 9 9 9 8 7 8 7 7 8 7 6 5 4 4 5 6 6 5 6
25 26 15 12 14 10 9 8 7 11 6 -0 7 8 6 9 8 10 9 5 7 -3 -8 11 13 4 9 8 6 11 9 3 3 5 4 -1 -1 0 -4 2 12 6 -0 -0 0 4 6 7 10 7 7 14 12 6 5 5 7 9 11 13 7 4 11 9 3 7 17 20 14 10 11 6 6 11 13 11 10 9 8 8 8 9 9 9 8 8 7 7 6 5 4 4 5 7 7 7 7
23 25 20 13 10 10 10 9 9 12 9 10 23 22 11 11 13 16 19 17 17 10 9 16 9 2 6 3 -0 1 2 4 4 5 5 -1 -1 1 -0 4 5 -5 -8 -3 1 9 13 11 9 10 10 11 6 -1 1 8 11 9 10 12 7 5 11 11 7 4 6 16 21 13 8 12 14 16 15 13 10 8 8 9 9 9 9 8 9 9 7 6 5 5 5 4 5 7 8 9 9
12 11 11 10 7 4 5 9 11 12 15 18 17 12 5 4 6 9 13 18 22 23 21 13 1 2 6 3 -1 -3 -3 -0 -0 -0 1 -2 0 4 4 4 1 -0 2 1 1 8 19 21 14 9 8 9 10 5 3 9 13 10 11 12 8 6 13 16 9 5 6 10 15 13 13 19 18 13 13 11 9 8 8 9 8 7 7 8 10 9 6 5 4 4 5 5 6 8 9 9 9
17 15 10 6 4 4 5 9 11 10 9 8 5 5 6 5 6 7 10 13 14 13 13 9 4 7 11 9 6 2 0 -0 -2 -3 -3 -2 1 3 1 1 3 5 1 -2 3 9 15 21 19 12 8 8 12 10 4 4 8 10 11 12 10 3 8 19 13 6 6 5 7 12 14 16 13 9 11 9 6 8 8 7 6 6 6 7 7 6 4 4 3 3 4 6 8 9 9 9 7
16 16 14 12 8 8 9 8 11 10 6 5 8 11 9 6 7 9 10 10 8 7 7 8 11 11 12 14 14 12 9 8 9 9 8 7 6 4 1 2 6 7 5 7 12 13 14 20 20 13 6 4 6 9 7 4 5 8 10 14 15 1 -5 13 22 14 7 3 6 12 10 9 11 10 10 10 9 9 7 5 5 6 7 6 5 4 4 3 3 4 5 6 8 9 8 7 7
15 14 10 11 8 8 10 6 7 11 10 9 7 5 6 7 9 10 10 9 7 7 6 8 12 12 10 12 15 16 13 12 15 15 17 18 15 12 9 8 10 12 14 15 13 11 10 17 20 14 10 13 15 14 10 7 5 5 6 13 20 8 -13 -4 19 24 14 4 7 16 13 9 11 8 7 11 12 8 4 5 6 5 5 5 4 4 3 3 3 4 6 7 8 8 7 6 7
19 16 11 11 9 8 10 9 9 10 11 11 8 5 5 4 6 7 8 9 7 8 9 7 7 9 11 11 10 12 11 11 13 13 13 14 14 16 14 12 14 12 12 11 13 16 13 15 22 20 18 18 15 14 13 14 19 19 16 13 16 13 -5 -10 10 25 21 7 5 14 16 11 6 3 8 14 11 6 4 4 5 5 5 4 4 4 3 4 3 4 6 7 8 7 6 6 6
16 10 11 14 10 8 10 10 11 12 8 8 7 8 6 3 4 7 9 10 8 8 8 5 5 8 12 13 12 12 11 11 12 11 12 11 9 10 12 15 15 10 11 13 13 13 10 12 21 28 30 23 13 13 13 15 16 16 22 22 15 10 1 -7 -1 14 23 17 9 9 8 8 6 4 9 11 5 3 4 4 5 6 5 5 5 4 4 5 4 5 6 7 9 9 7 7 7
13 9 9 10 8 8 11 10 12 11 5 2 3 3 3 3 3 3 6 7 5 5 5 5 8 9 9 9 8 8 7 6 5 6 11 12 11 14 18 26 31 24 18 13 10 10 9 10 19 31 36 33 30 22 16 21 10 -3 11 22 15 11 5 -2 -2 5 18 20 13 10 4 2 7 11 10 5 1 3 5 6 8 7 6 5 4 4 5 6 7 7 6 7 10 8 4 7 8
9 8 7 7 9 7 5 7 13 16 9 1 1 1 3 6 6 8 13 13 10 10 10 10 9 8 9 9 8 12 12 8 8 15 18 16 18 21 16 19 32 38 30 16 11 16 17 15 22 30 27 27 35 25 13 20 11 -1 12 12 9 16 7 -0 0 -4 7 20 18 19 16 3 4 14 12 2 1 7 8 7 8 7 8 7 6 7 8 9 9 8 6 6 8 5 4 8 10
7 3 2 5 12 10 4 2 6 13 10 3 2 4 6 7 6 8 11 12 13 14 12 11 10 8 10 13 15 18 20 17 17 25 28 24 21 12 2 4 14 21 25 22 15 11 10 9 13 23 23 22 30 25 18 18 3 1 17 6 1 16 8 2 1 -15 -2 26 21 13 14 7 7 16 13 5 6 9 8 8 8 7 9 9 8 9 9 10 10 8 8 7 6 6 7 9 10
10 3 0 3 6 6 6 4 1 4 6 6 5 6 8 9 10 11 10 7 7 8 9 10 10 6 3 12 19 14 12 17 20 23 25 24 18 3 -6 3 11 12 15 15 11 8 9 11 10 14 18 19 26 27 21 19 2 -2 18 11 -0 11 11 10 8 -9 2 26 17 3 4 10 18 18 9 6 10 11 9 9 8 7 8 10 9 9 10 11 10 9 8 8 7 8 9 9 10
Height
5861 5862 5863 5863 5863 5864 5864 5865 5865 5867 5868 5868 5868 5867 5867 5867 5865 5866 5867 5867 5869 5871 5873 5874 5875 5876 5876 5875 5876 5876 5877 5877 5876 5875 5875 5874 5873 5872 5871 5870 5870 5870 5870 5870 5870 5870 5870 5869 5869 5869 5868 5868 5867 5866 5866 5866 5866 5866 5866 5867 5867 5866 5865 5865 5864 5863 5863 5862 5861 5860 5859 5857 5856 5855 5854 5854 5853 5853 5852 5851 5851 5850 5850 5849 5849 5848 5847 5846 5845 5844 5843 5842 5842 5841 5841 5840 5840
5859 5860 5860 5860 5861 5862 5862 5863 5864 5865 5866 5866 5865 5864 5864 5865 5865 5866 5867 5868 5869 5870 5870 5871 5872 5873 5874 5874 5875 5875 5875 5876 5874 5873 5872 5871 5870 5869 5868 5868 5868 5868 5869 5869 5869 5868 5868 5868 5867 5867 5866 5866 5865 5865 5865 5865 5865 5865 5866 5866 5866 5865 5864 5864 5864 5863 5862 5861 5860 5859 5858 5856 5855 5854 5854 5853 5853 5852 5852 5851 5850 5850 5849 5849 5848 5848 5847 5846 5844 5843 5843 5842 5841 5841 5841 5840 5840
5857 5857 5858 5858 5859 5859 5860 5861 5862 5864 5864 5863 5862 5862 5863 5864 5865 5865 5866 5867 5868 5869 5869 5869 5870 5871 5872 5873 5874 5874 5874 5875 5873 5871 5869 5868 5867 5867 5867 5866 5866 5866 5867 5867 5867 5866 5866 5866 5866 5865 5865 5864 5864 5863 5863 5864 5864 5864 5865 5865 5865 5864 5864 5863 5863 5862 5861 5860 5859 5858 5857 5855 5854 5854 5853 5853 5852 5852 5851 5850 5850 5849 5849 5848 5848 5847 5846 5845 5844 5843 5842 5842 5841 5841 5841 5840 5840
5854 5855 5855 5856 5856 5857 5858 5859 5861 5862 5861 5861 5860 5861 5862 5862 5863 5863 5864 5866 5867 5868 5868 5869 5869 5869 5870 5871 5872 5872 5873 5872 5870 5868 5866 5866 5866 5865 5865 5864 5864 5864 5865 5864 5864 5864 5864 5864 5863 5863 5862 5862 5862 5862 5862 5863 5863 5863 5864 5864 5864 5864 5863 5863 5862 5861 5860 5859 5858 5857 5855 5854 5853 5853 5852 5852 5852 5851 5850 5850 5849 5849 5848 5848 5848 5847 5846 5845 5844 5843 5842 5842 5841 5841 5840 5840 5840
5852 5852 5853 5853 5854 5855 5856 5857 5859 5859 5860 5860 5858 5859 5859 5859 5860 5861 5862 5865 5866 5867 5868 5869 5868 5868 5868 5868 5869 5869 5869 5869 5867 5865 5864 5864 5864 5863 5863 5863 5863 5863 5862 5862 5862 5862 5862 5861 5861 5861 5860 5860 5861 5861 5861 5862 5862 5863 5863 5863 5862 5862 5862 5862 5861 5860 5858 5857 5857 5855 5854 5853 5853 5852 5852 5852 5851 5850 5850 5849 5849 5848 5848 5848 5847 5846 5845 5845 5844 5843 5842 5842 5841 5841 5840 5840 5840
5849 5850 5850 5851 5852 5853 5855 5856 5857 5857 5858 5858 5856 5856 5856 5856 5858 5860 5861 5864 5865 5866 5868 5868 5867 5867 5866 5866 5866 5866 5866 5865 5864 5862 5861 5862 5862 5861 5861 5861 5861 5861 5860 5860 5860 5860 5859 5859 5858 5858 5858 5859 5859 5860 5861 5861 5862 5862 5861 5861 5861 5861 5861 5861 5860 5858 5857 5856 5855 5854 5853 5852 5852 5851 5851 5851 5851 5850 5849 5849 5848 5848 5847 5847 5846 5845 5845 5844 5843 5843 5842 5842 5841 5840 5840 5840 5840
5847 5847 5848 5849 5850 5852 5853 5854 5854 5855 5855 5855 5854 5854 5854 5854 5856 5858 5860 5863 5863 5865 5866 5865 5865 5865 5864 5864 5864 5863 5863 5862 5862 5860 5860 5860 5860 5859 5859 5859 5858 5858 5858 5858 5858 5857 5857 5856 5856 5856 5857 5858 5858 5859 5860 5860 5860 5860 5860 5860 5860 5860 5859 5859 5858 5857 5856 5855 5854 5853 5852 5852 5851 5850 5850 5850 5850 5849 5849 5848 5848 5847 5847 5846 5845 5845 5844 5843 5843 5842 5842 5841 5841 5840 5840 5840 5840
5845 5845 5846 5847 5849 5850 5851 5851 5852 5852 5852 5852 5852 5852 5852 5852 5854 5857 5859 5860 5861 5862 5863 5863 5864 5863 5862 5863 5861 5860 5860 5860 5859 5858 5858 5858 5857 5857 5857 5857 5856 5856 5856 5856 5855 5854 5854 5854 5854 5855 5856 5857 5858 5858 5859 5859 5859 5859 5859 5859 5859 5859 5858 5857 5857 5855 5854 5854 5853 5852 5851 5851 5850 5849 5849 5849 5849 5848 5848 5848 5847 5847 5846 5845 5844 5843 5843 5843 5842 5842 5842 5841 5841 5840 5840 5840 5839
5843 5843 5844 5846 5847 5848 5848 5849 5849 5850 5849 5849 5850 5851 5852 5852 5853 5854 5856 5858 5859 5860 5860 5861 5862 5861 5861 5861 5859 5858 5858 5858 5857 5856 5856 5855 5855 5854 5854 5854 5853 5853 5853 5852 5852 5852 5852 5852 5853 5854 5856 5856 5857 5857 5857 5857 5857 5857 5857 5858 5858 5858 5857 5856 5855 5854 5853 5852 5852 5851 5850 5849 5849 5849 5849 5848 5848 5848 5847 5847 5847 5846 5845 5844 5843 5842 5842 5842 5842 5841 5841 5841 5840 5840 5839 5839 5839
5841 5841 5843 5844 5845 5845 5846 5846 5846 5847 5848 5847 5848 5849 5850 5850 5851 5852 5853 5856 5858 5858 5858 5858 5858 5859 5859 5858 5858 5857 5856 5855 5855 5854 5854 5853 5852 5851 5851 5850 5850 5849 5849 5849 5849 5850 5851 5852 5853 5854 5855 5855 5855 5855 5855 5855 5855 5855 5856 5856 5856 5856 5855 5854 5853 5852 5852 5851 5850 5850 5849 5848 5848 5848 5848 5848 5847 5847 5846 5846 5846 5845 5845 5843 5842 5842 5841 5841 5841 5841 5840 5840 5840 5839 5839 5839 5839
5839 5840 5841 5842 5843 5842 5843 5844 5845 5846 5847 5847 5847 5846 5847 5847 5849 5850 5851 5854 5855 5856 5856 5856 5856 5857 5857 5857 5856 5856 5855 5853 5852 5852 5851 5851 5849 5847 5846 5847 5846 5845 5846 5846 5847 5848 5850 5851 5852 5853 5853 5852 5852 5852 5852 5852 5853 5854 5854 5855 5854 5854 5853 5852 5852 5851 5850 5850 5849 5848 5848 5847 5847 5847 5847 5846 5846 5846 5845 5845 5845 5845 5844 5842 5842 5841 5841 5840 5840 5840 5839 5839 5839 5839 5839 5839 5839
5836 5838 5839 5840 5841 5840 5840 5843 5844 5846 5846 5845 5845 5844 5844 5845 5847 5848 5850 5852 5854 5854 5854 5854 5854 5854 5854 5854 5853 5853 5853 5851 5850 5849 5848 5848 5845 5842 5841 5842 5841 5842 5843 5844 5845 5846 5848 5849 5849 5849 5849 5849 5849 5849 5850 5851 5851 5852 5853 5853 5853 5852 5851 5851 5851 5850 5849 5849 5848 5847 5846 5846 5846 5846 5846 5845 5845 5845 5845 5844 5844 5844 5843 5842 5841 5840 5840 5840 5839 5839 5839 5838 5838 5838 5838 5838 5838
5834 5835 5837 5837 5839 5839 5839 5840 5842 5843 5843 5842 5842 5841 5841 5843 5845 5847 5848 5851 5852 5852 5851 5851 5852 5852 5852 5852 5851 5850 5850 5849 5847 5845 5844 5842 5839 5836 5835 5836 5837 5839 5841 5842 5844 5845 5846 5846 5846 5846 5846 5846 5847 5848 5848 5849 5850 5851 5852 5852 5851 5850 5850 5850 5850 5849 5848 5848 5847 5846 5846 5845 5845 5845 5845 5844 5844 5844 5844 5843 5843 5843 5842 5841 5840 5839 5839 5839 5838 5838 5838 5837 5837 5837 5838 5838 5838
5832 5833 5834 5835 5837 5837 5836 5838 5839 5840 5840 5839 5839 5838 5839 5842 5844 5846 5847 5849 5850 5850 5848 5849 5849 5849 5850 5850 5850 5849 5847 5846 5843 5840 5837 5835 5834 5833 5832 5834 5836 5838 5840 5841 5842 5843 5844 5844 5844 5844 5845 5845 5846 5847 5848 5849 5850 5850 5851 5850 5849 5849 5849 5849 5848 5847 5847 5846 5846 5845 5845 5844 5844 5844 5844 5844 5843 5843 5842 5842 5842 5842 5841 5840 5839 5839 5838 5838 5837 5837 5837 5837 5837 5837 5837 5838 5838
5830 5831 5833 5834 5835 5834 5834 5836 5837 5837 5837 5836 5836 5836 5838 5842 5843 5844 5844 5845 5848 5848 5847 5848 5847 5847 5847 5848 5848 5847 5845 5843 5839 5836 5834 5832 5833 5835 5834 5834 5836 5837 5839 5841 5842 5843 5843 5843 5843 5844 5844 5845 5845 5846 5847 5848 5849 5849 5849 5848 5847 5847 5847 5847 5846 5845 5845 5845 5844 5844 5843 5843 5843 5843 5843 5843 5842 5842 5841 5841 5841 5840 5840 5840 5839 5838 5837 5837 5836 5836 5836 5836 5836 5836 5836 5837 5837
5827 5829 5830 5831 5832 5831 5831 5833 5834 5835 5835 5834 5834 5834 5837 5841 5842 5842 5842 5842 5844 5846 5846 5845 5845 5844 5845 5846 5846 5845 5844 5841 5837 5835 5834 5833 5834 5836 5835 5835 5837 5838 5840 5842 5842 5843 5843 5842 5842 5843 5843 5843 5844 5845 5846 5847 5847 5847 5846 5845 5845 5845 5845 5845 5844 5844 5843 5843 5843 5843 5842 5842 5842 5842 5842 5842 5842 5841 5840 5840 5840 5839 5839 5839 5838 5837 5836 5836 5836 5835 5835 5835 5835 5835 5836 5836 5836
5825 5827 5828 5828 5828 5827 5828 5831 5831 5832 5832 5832 5832 5833 5835 5838 5840 5840 5840 5841 5842 5843 5843 5842 5841 5842 5843 5844 5844 5844 5843 5839 5835 5834 5833 5832 5834 5834 5833 5835 5836 5838 5841 5841 5841 5841 5840 5841 5841 5841 5841 5842 5844 5844 5844 5845 5845 5844 5844 5843 5843 5843 5843 5843 5842 5842 5842 5842 5841 5841 5841 5841 5841 5840 5841 5841 5841 5840 5839 5839 5839 5838 5838 5838 5837 5836 5835 5835 5835 5834 5834 5834 5834 5835 5835 5835 5835
5823 5824 5824 5824 5824 5825 5826 5828 5829 5830 5830 5830 5831 5832 5834 5836 5838 5837 5837 5839 5840 5840 5839 5839 5839 5839 5841 5843 5843 5842 5840 5837 5834 5831 5829 5830 5833 5832 5830 5832 5834 5835 5836 5837 5837 5837 5837 5838 5838 5839 5840 5841 5842 5842 5841 5842 5842 5842 5841 5840 5840 5840 5840 5840 5840 5840 5840 5840 5840 5840 5840 5840 5839 5839 5839 5839 5839 5839 5837 5837 5838 5837 5837 5837 5836 5835 5834 5834 5834 5833 5833 5833 5834 5834 5834 5833 5833
5820 5820 5820 5821 5822 5823 5824 5825 5827 5828 5828 5829 5829 5831 5832 5833 5835 5835 5835 5836 5839 5838 5837 5837 5837 5838 5840 5840 5840 5839 5837 5835 5831 5828 5827 5828 5830 5831 5829 5829 5830 5831 5833 5833 5834 5834 5834 5835 5837 5837 5838 5839 5840 5839 5839 5840 5840 5839 5839 5838 5838 5838 5838 5838 5838 5839 5839 5839 5839 5839 5838 5838 5838 5838 5838 5838 5838 5837 5836 5836 5836 5836 5836 5835 5834 5834 5833 5833 5833 5832 5833 5833 5833 5833 5832 5832 5832
5817 5817 5817 5818 5819 5821 5823 5823 5824 5826 5826 5826 5827 5828 5830 5831 5832 5833 5833 5834 5836 5836 5835 5835 5835 5837 5838 5838 5838 5837 5835 5832 5828 5826 5826 5826 5827 5828 5827 5827 5827 5829 5831 5832 5832 5833 5833 5835 5837 5837 5836 5836 5837 5838 5839 5839 5838 5838 5837 5836 5835 5835 5835 5835 5836 5837 5837 5837 5837 5837 5837 5837 5837 5836 5836 5836 5836 5836 5835 5835 5835 5835 5835 5834 5834 5833 5833 5832 5832 5832 5832 5832 5832 5832 5831 5830 5831
5814 5814 5814 5815 5817 5818 5820 5821 5822 5823 5823 5824 5825 5826 5827 5828 5830 5831 5831 5832 5833 5833 5832 5832 5834 5835 5835 5835 5836 5835 5832 5830 5828 5826 5824 5824 5824 5825 5824 5824 5825 5827 5830 5832 5833 5833 5834 5835 5836 5837 5836 5835 5836 5837 5837 5837 5837 5836 5835 5834 5833 5833 5833 5833 5834 5835 5836 5836 5836 5835 5835 5835 5835 5835 5835 5835 5835 5834 5834 5834 5834 5834 5833 5833 5833 5832 5832 5831 5831 5831 5831 5831 5831 5830 5829 5829 5830
5810 5810 5810 5812 5814 5815 5817 5819 5819 5820 5821 5822 5823 5824 5824 5826 5827 5828 5829 5829 5830 5830 5830 5831 5833 5832 5831 5833 5833 5832 5830 5829 5827 5824 5822 5823 5823 5822 5822 5822 5823 5825 5829 5831 5832 5832 5832 5833 5834 5835 5835 5834 5834 5835 5836 5836 5835 5834 5834 5832 5831 5830 5831 5832 5833 5834 5834 5834 5834 5834 5833 5833 5833 5833 5833 5833 5833 5833 5832 5832 5833 5832 5832 5832 5832 5831 5831 5830 5830 5830 5830 5830 5830 5829 5828 5828 5828
5806 5806 5807 5809 5812 5813 5814 5815 5816 5817 5819 5820 5820 5821 5821 5823 5824 5825 5826 5827 5828 5828 5827 5830 5830 5829 5829 5830 5830 5829 5829 5827 5824 5821 5821 5821 5821 5821 5821 5820 5821 5824 5827 5829 5829 5829 5830 5831 5832 5833 5833 5832 5832 5833 5834 5833 5833 5832 5831 5830 5829 5828 5829 5830 5831 5831 5832 5832 5832 5832 5832 5832 5832 5831 5831 5832 5832 5831 5831 5831 5831 5831 5831 5831 5831 5830 5830 5829 5829 5829 5830 5830 5829 5828 5827 5827 5827
5802 5803 5806 5807 5809 5810 5811 5813 5814 5815 5816 5817 5818 5818 5818 5819 5821 5822 5823 5824 5826 5825 5826 5828 5826 5826 5827 5828 5828 5827 5826 5825 5822 5820 5820 5819 5819 5820 5819 5819 5820 5822 5824 5825 5826 5826 5827 5828 5829 5829 5830 5831 5831 5831 5831 5830 5830 5829 5828 5828 5827 5826 5827 5827 5828 5829 5829 5830 5830 5829 5830 5830 5830 5830 5830 5830 5830 5830 5830 5830 5830 5830 5830 5830 5830 5829 5828 5828 5828 5828 5829 5829 5829 5828 5826 5825 5825
5799 5802 5804 5804 5806 5807 5808 5810 5811 5813 5814 5815 5815 5815 5816 5816 5817 5819 5821 5822 5823 5823 5824 5824 5823 5823 5824 5825 5826 5825 5823 5822 5820 5819 5818 5817 5817 5818 5818 5818 5819 5820 5821 5822 5823 5823 5823 5824 5825 5826 5827 5828 5829 5830 5829 5828 5827 5826 5825 5825 5825 5824 5824 5825 5826 5826 5827 5827 5827 5827 5828 5828 5828 5828 5828 5828 5828 5828 5828 5828 5829 5829 5829 5829 5829 5828 5827 5827 5827 5827 5828 5829 5829 5827 5825 5824 5824
5797 5799 5801 5801 5803 5804 5806 5807 5809 5810 5812 5813 5813 5813 5813 5814 5815 5817 5818 5819 5819 5820 5822 5821 5821 5821 5820 5822 5824 5821 5820 5819 5818 5817 5815 5815 5815 5816 5816 5816 5817 5818 5819 5820 5820 5821 5821 5822 5822 5823 5824 5825 5827 5827 5827 5826 5825 5824 5823 5823 5822 5822 5822 5822 5823 5823 5824 5824 5825 5826 5826 5826 5826 5826 5826 5826 5826 5827 5827 5827 5827 5827 5828 5828 5827 5827 5826 5825 5826 5826 5827 5828 5828 5826 5824 5824 5824
5795 5795 5796 5798 5800 5802 5803 5805 5807 5808 5810 5811 5811 5811 5811 5811 5812 5814 5815 5815 5816 5819 5819 5818 5818 5817 5817 5820 5820 5818 5817 5816 5815 5815 5813 5813 5813 5814 5814 5815 5816 5816 5817 5818 5819 5820 5820 5821 5821 5821 5821 5822 5823 5824 5824 5823 5822 5821 5821 5820 5819 5819 5820 5820 5820 5821 5821 5822 5823 5823 5824 5824 5824 5824 5824 5824 5824 5825 5825 5825 5825 5826 5826 5826 5826 5825 5825 5824 5824 5825 5827 5827 5827 5824 5823 5823 5825
5792 5793 5795 5797 5798 5799 5801 5804 5805 5806 5807 5808 5809 5809 5810 5810 5810 5811 5812 5812 5814 5817 5816 5815 5815 5814 5815 5817 5817 5816 5815 5813 5813 5812 5811 5811 5811 5812 5812 5813 5814 5815 5816 5817 5817 5818 5819 5819 5819 5819 5819 5819 5820 5820 5820 5820 5819 5818 5818 5817 5817 5817 5817 5818 5818 5819 5819 5820 5821 5821 5821 5822 5822 5822 5822 5822 5823 5823 5823 5824 5824 5825 5825 5825 5825 5824 5824 5823 5824 5825 5826 5826 5825 5823 5822 5823 5825
5790 5792 5793 5795 5796 5798 5801 5802 5803 5804 5805 5806 5806 5807 5807 5807 5808 5809 5809 5809 5811 5814 5813 5813 5812 5811 5812 5814 5814 5813 5812 5811 5810 5810 5809 5809 5809 5810 5810 5811 5812 5813 5814 5815 5816 5816 5817 5817 5817 5816 5816 5815 5816 5817 5817 5817 5816 5815 5815 5815 5814 5814 5815 5816 5816 5816 5817 5818 5818 5818 5819 5819 5819 5820 5820 5821 5821 5821 5822 5822 5823 5823 5824 5824 5824 5823 5823 5822 5823 5824 5825 5825 5824 5823 5822 5823 5824
5787 5789 5791 5793 5795 5797 5798 5799 5800 5802 5802 5803 5804 5805 5804 5804 5805 5806 5806 5806 5808 5810 5810 5810 5809 5808 5810 5812 5811 5811 5810 5809 5808 5808 5807 5807 5808 5808 5808 5809 5810 5811 5812 5813 5814 5814 5814 5814 5814 5814 5813 5813 5813 5814 5814 5814 5813 5813 5812 5812 5811 5811 5812 5813 5814 5814 5815 5816 5816 5816 5816 5816 5817 5817 5818 5818 5819 5820 5820 5821 5822 5822 5823 5823 5823 5822 5822 5821 5822 5823 5824 5824 5824 5822 5822 5823 5824
5784 5786 5790 5792 5793 5794 5795 5797 5798 5799 5799 5800 5802 5802 5801 5802 5802 5803 5803 5804 5806 5807 5807 5808 5807 5806 5808 5809 5809 5808 5808 5807 5806 5806 5805 5805 5806 5806 5806 5807 5808 5808 5809 5810 5811 5811 5812 5811 5811 5810 5810 5809 5810 5810 5810 5811 5811 5810 5810 5809 5809 5809 5809 5810 5811 5812 5812 5813 5813 5814 5814 5814 5814 5815 5815 5816 5817 5818 5819 5819 5821 5821 5822 5822 5822 5822 5821 5820 5821 5822 5823 5824 5823 5822 5822 5822 5823
5782 5785 5788 5790 5791 5792 5793 5795 5796 5796 5797 5798 5800 5800 5799 5800 5800 5800 5800 5801 5803 5805 5804 5805 5804 5805 5806 5806 5806 5806 5806 5806 5805 5804 5803 5803 5804 5804 5804 5805 5805 5806 5807 5807 5808 5808 5809 5808 5808 5807 5807 5806 5806 5807 5807 5808 5808 5807 5807 5806 5806 5805 5805 5806 5807 5808 5809 5809 5810 5811 5811 5812 5812 5812 5813 5814 5815 5816 5817 5818 5819 5820 5821 5821 5821 5820 5820 5819 5819 5820 5822 5823 5823 5822 5821 5822 5822
5780 5783 5785 5786 5787 5789 5790 5792 5793 5794 5795 5796 5798 5798 5797 5797 5798 5797 5798 5798 5800 5802 5801 5801 5802 5802 5803 5802 5803 5803 5803 5803 5803 5802 5801 5801 5802 5802 5802 5803 5803 5803 5804 5805 5805 5805 5806 5805 5805 5804 5804 5803 5803 5803 5804 5805 5805 5804 5803 5803 5802 5802 5802 5802 5803 5805 5805 5806 5807 5809 5809 5810 5810 5810 5811 5812 5813 5814 5815 5817 5818 5819 5819 5819 5819 5819 5819 5818 5818 5819 5821 5822 5822 5821 5821 5821 5821
5778 5780 5782 5782 5783 5784 5786 5788 5790 5791 5793 5794 5796 5796 5795 5795 5795 5795 5795 5796 5797 5798 5798 5798 5799 5799 5800 5799 5800 5800 5800 5801 5800 5799 5799 5799 5800 5800 5801 5801 5801 5801 5802 5802 5802 5802 5802 5802 5802 5801 5801 5800 5800 5800 5802 5802 5801 5801 5800 5800 5799 5798 5799 5799 5800 5801 5802 5803 5804 5806 5807 5808 5808 5808 5810 5811 5811 5812 5814 5815 5817 5818 5818 5818 5818 5818 5817 5817 5817 5818 5819 5820 5820 5821 5820 5820 5820
5776 5776 5777 5777 5778 5780 5782 5784 5786 5788 5791 5791 5792 5793 5792 5792 5792 5792 5792 5793 5795 5796 5795 5795 5796 5796 5796 5796 5796 5797 5798 5798 5797 5797 5797 5797 5797 5798 5799 5798 5799 5799 5799 5799 5799 5799 5799 5798 5799 5798 5798 5798 5797 5797 5799 5798 5797 5798 5798 5798 5797 5796 5796 5797 5796 5797 5798 5800 5801 5803 5804 5805 5806 5806 5808 5809 5810 5811 5813 5815 5816 5817 5817 5817 5817 5817 5816 5816 5816 5816 5818 5819 5819 5819 5819 5819 5819
5771 5771 5772 5773 5775 5777 5780 5782 5783 5786 5788 5788 5789 5789 5789 5790 5790 5790 5790 5791 5792 5793 5793 5793 5793 5793 5793 5793 5794 5794 5795 5796 5795 5795 5795 5795 5795 5796 5796 5796 5796 5797 5797 5797 5796 5796 5796 5795 5796 5796 5795 5795 5793 5793 5795 5795 5794 5795 5796 5795 5795 5794 5794 5794 5794 5794 5795 5797 5798 5800 5801 5803 5804 5805 5806 5808 5809 5811 5812 5813 5814 5815 5815 5815 5816 5816 5816 5815 5815 5815 5816 5817 5818 5818 5818 5818 5818
5767 5768 5770 5772 5774 5775 5779 5781 5781 5783 5784 5784 5785 5785 5786 5788 5790 5789 5788 5788 5789 5790 5790 5790 5790 5791 5791 5791 5792 5792 5793 5794 5793 5793 5792 5793 5793 5794 5794 5794 5794 5794 5794 5793 5793 5793 5793 5793 5793 5793 5793 5792 5790 5789 5792 5793 5792 5793 5792 5792 5792 5791 5791 5791 5791 5791 5792 5794 5795 5797 5799 5801 5802 5803 5805 5806 5808 5809 5811 5812 5813 5813 5814 5814 5814 5815 5815 5814 5814 5814 5814 5815 5816 5817 5817 5817 5817
5764 5766 5768 5770 5772 5774 5778 5779 5778 5779 5780 5780 5781 5781 5782 5784 5787 5788 5787 5786 5786 5787 5787 5787 5788 5789 5789 5790 5790 5790 5790 5790 5791 5790 5790 5790 5791 5791 5792 5792 5792 5791 5791 5790 5790 5790 5790 5790 5791 5791 5790 5789 5786 5786 5788 5789 5789 5790 5790 5789 5788 5788 5788 5788 5788 5789 5790 5791 5793 5796 5798 5800 5801 5802 5803 5805 5806 5807 5809 5810 5811 5811 5812 5813 5813 5813 5813 5813 5812 5812 5812 5813 5814 5815 5816 5816 5816
5762 5763 5765 5768 5771 5773 5776 5776 5775 5776 5777 5777 5778 5778 5780 5781 5782 5784 5786 5786 5785 5784 5783 5784 5785 5785 5786 5786 5786 5786 5786 5786 5787 5788 5788 5788 5788 5788 5789 5789 5788 5788 5788 5787 5787 5788 5788 5788 5788 5788 5787 5786 5785 5784 5785 5786 5785 5786 5786 5786 5785 5785 5786 5786 5787 5787 5788 5789 5791 5794 5797 5799 5800 5801 5802 5803 5804 5805 5806 5807 5809 5809 5810 5811 5812 5811 5811 5811 5811 5811 5811 5811 5812 5814 5814 5814 5815
5759 5761 5762 5766 5769 5771 5773 5772 5772 5772 5773 5774 5775 5775 5777 5778 5778 5780 5783 5784 5783 5781 5781 5782 5782 5782 5783 5783 5782 5783 5783 5783 5784 5785 5786 5786 5786 5786 5785 5785 5785 5785 5785 5785 5785 5785 5785 5785 5785 5784 5784 5784 5783 5782 5783 5783 5782 5783 5783 5783 5782 5782 5783 5784 5785 5786 5787 5788 5790 5792 5795 5797 5798 5799 5800 5801 5802 5803 5804 5806 5807 5807 5808 5809 5809 5810 5810 5810 5810 5810 5810 5811 5811 5812 5812 5812 5813
5757 5758 5760 5763 5767 5769 5769 5770 5770 5770 5770 5771 5772 5773 5774 5775 5776 5777 5779 5781 5781 5779 5779 5779 5780 5780 5780 5780 5780 5780 5781 5781 5782 5783 5783 5783 5784 5784 5783 5783 5783 5782 5782 5782 5783 5783 5782 5782 5782 5781 5782 5782 5781 5780 5780 5780 5780 5781 5781 5781 5780 5780 5781 5781 5783 5785 5786 5787 5788 5790 5792 5794 5795 5797 5798 5799 5800 5802 5803 5804 5805 5806 5806 5807 5807 5808 5808 5809 5809 5809 5809 5810 5810 5811 5811 5811 5812
5754 5756 5758 5762 5765 5766 5766 5767 5767 5768 5769 5770 5771 5772 5772 5773 5774 5775 5776 5778 5778 5778 5777 5778 5778 5777 5777 5778 5778 5778 5778 5779 5779 5780 5781 5781 5781 5781 5780 5780 5781 5780 5780 5780 5781 5780 5779 5779 5779 5778 5779 5779 5779 5778 5778 5777 5778 5779 5779 5779 5779 5779 5779 5780 5781 5783 5784 5785 5786 5788 5790 5792 5793 5795 5796 5797 5799 5800 5801 5802 5803 5804 5805 5805 5805 5806 5807 5807 5808 5807 5808 5808 5809 5810 5810 5811 5811
5752 5754 5757 5761 5763 5763 5764 5764 5765 5766 5767 5768 5769 5770 5770 5771 5772 5772 5774 5775 5775 5775 5776 5777 5777 5776 5775 5775 5776 5776 5776 5777 5777 5778 5779 5779 5779 5778 5777 5777 5778 5778 5778 5778 5778 5777 5776 5776 5776 5776 5776 5777 5777 5776 5775 5775 5776 5777 5777 5777 5778 5778 5778 5779 5780 5781 5782 5784 5785 5786 5788 5790 5791 5792 5794 5795 5797 5798 5799 5800 5801 5802 5803 5803 5804 5804 5805 5806 5806 5806 5806 5807 5807 5808 5809 5809 5809
5750 5752 5756 5759 5760 5761 5761 5761 5762 5763 5764 5765 5766 5766 5768 5770 5770 5769 5771 5771 5771 5773 5774 5775 5775 5774 5773 5773 5773 5773 5774 5775 5775 5776 5776 5777 5776 5776 5775 5775 5775 5775 5775 5775 5775 5775 5774 5774 5774 5774 5775 5775 5774 5773 5772 5772 5774 5775 5775 5776 5776 5776 5777 5778 5779 5780 5781 5782 5783 5785 5786 5788 5789 5790 5792 5793 5795 5797 5798 5799 5800 5800 5801 5802 5802 5803 5803 5804 5804 5804 5805 5805 5806 5807 5807 5807 5807
5749 5752 5753 5755 5757 5757 5758 5759 5759 5760 5761 5763 5764 5764 5766 5768 5767 5766 5767 5768 5768 5769 5771 5772 5772 5771 5771 5770 5770 5771 5771 5772 5772 5773 5773 5773 5773 5773 5773 5773 5772 5772 5772 5773 5773 5773 5772 5772 5773 5773 5773 5774 5772 5770 5770 5771 5772 5774 5774 5775 5775 5774 5775 5776 5777 5778 5780 5781 5782 5783 5783 5785 5787 5788 5790 5791 5793 5794 5796 5797 5798 5799 5800 5801 5801 5801 5802 5802 5803 5803 5803 5804 5805 5805 5805 5805 5806
5748 5749 5749 5750 5752 5753 5754 5756 5757 5758 5759 5760 5762 5762 5764 5764 5763 5763 5763 5765 5766 5767 5767 5768 5768 5768 5768 5768 5769 5769 5769 5769 5769 5770 5770 5769 5770 5770 5771 5771 5770 5770 5769 5770 5771 5771 5771 5771 5771 5772 5772 5772 5771 5770 5770 5771 5772 5772 5772 5773 5774 5773 5773 5774 5775 5776 5778 5780 5781 5781 5781 5783 5784 5786 5788 5789 5791 5792 5793 5794 5796 5797 5799 5799 5800 5800 5800 5801 5801 5801 5802 5803 5803 5804 5804 5804 5804
5743 5743 5744 5745 5748 5749 5751 5753 5754 5755 5755 5757 5761 5762 5762 5761 5759 5759 5760 5761 5763 5764 5765 5765 5765 5765 5765 5766 5767 5766 5767 5767 5767 5767 5767 5767 5767 5768 5768 5768 5767 5766 5766 5766 5768 5768 5768 5768 5768 5769 5769 5769 5768 5768 5769 5770 5771 5771 5771 5772 5772 5772 5772 5772 5773 5774 5776 5778 5779 5779 5780 5781 5782 5783 5785 5787 5788 5789 5791 5792 5794 5795 5797 5797 5798 5798 5799 5800 5800 5800 5801 5801 5802 5802 5802 5802 5803
5739 5739 5740 5742 5744 5746 5748 5749 5751 5752 5754 5757 5761 5761 5760 5758 5756 5756 5757 5758 5760 5762 5763 5763 5763 5762 5763 5763 5764 5764 5764 5764 5765 5765 5765 5765 5764 5764 5765 5764 5763 5763 5763 5764 5765 5765 5765 5765 5765 5766 5766 5766 5765 5765 5766 5767 5768 5769 5770 5771 5771 5771 5770 5770 5771 5771 5773 5775 5777 5777 5778 5779 5780 5781 5782 5784 5786 5787 5789 5790 5792 5793 5794 5795 5796 5796 5797 5798 5798 5798 5799 5800 5800 5800 5801 5801 5801
5736 5737 5738 5739 5741 5742 5744 5746 5749 5750 5753 5756 5757 5757 5756 5754 5752 5753 5754 5755 5757 5759 5760 5760 5760 5760 5761 5762 5762 5761 5761 5762 5762 5762 5762 5762 5761 5761 5762 5761 5760 5760 5760 5760 5762 5763 5763 5763 5763 5763 5763 5763 5762 5762 5762 5764 5764 5765 5767 5768 5769 5770 5770 5769 5769 5769 5770 5772 5774 5775 5776 5777 5778 5779 5780 5782 5784 5785 5786 5787 5788 5790 5791 5792 5793 5794 5795 5796 5796 5797 5797 5797 5798 5798 5799 5799 5799
5733 5735 5736 5737 5738 5739 5741 5744 5747 5749 5752 5753 5753 5753 5752 5751 5750 5751 5751 5752 5755 5756 5757 5757 5758 5758 5759 5760 5760 5759 5759 5759 5759 5760 5760 5759 5759 5759 5759 5758 5757 5757 5756 5755 5758 5760 5760 5759 5758 5758 5759 5759 5759 5759 5759 5760 5760 5760 5762 5765 5767 5770 5770 5768 5767 5767 5768 5769 5771 5773 5774 5775 5776 5777 5778 5780 5781 5782 5783 5784 5786 5787 5788 5789 5790 5791 5792 5793 5794 5794 5795 5795 5796 5797 5797 5797 5797
5730 5733 5734 5735 5736 5738 5740 5743 5745 5747 5748 5749 5749 5750 5749 5748 5748 5748 5748 5750 5752 5753 5754 5755 5755 5755 5756 5757 5757 5757 5757 5757 5757 5758 5757 5757 5756 5756 5756 5756 5755 5755 5754 5754 5755 5757 5756 5754 5754 5754 5753 5753 5754 5754 5755 5756 5756 5756 5758 5761 5764 5767 5767 5765 5765 5765 5766 5767 5768 5770 5772 5773 5774 5775 5776 5777 5779 5780 5781 5782 5783 5785 5785 5786 5787 5789 5790 5791 5791 5792 5792 5793 5794 5795 5795 5795 5795
5727 5729 5731 5732 5734 5736 5739 5741 5742 5743 5744 5745 5746 5746 5746 5747 5747 5747 5747 5748 5749 5750 5751 5752 5752 5752 5753 5754 5754 5755 5755 5755 5755 5755 5754 5754 5754 5753 5752 5752 5751 5751 5751 5751 5752 5753 5752 5751 5751 5751 5748 5748 5748 5748 5751 5753 5753 5753 5755 5757 5760 5763 5764 5763 5763 5763 5764 5764 5765 5767 5769 5770 5772 5773 5774 5776 5777 5778 5779 5780 5782 5783 5783 5784 5785 5786 5787 5788 5789 5790 5790 5791 5792 5792 5793 5793 5793
5724 5726 5729 5731 5733 5735 5736 5737 5738 5739 5740 5742 5743 5743 5744 5745 5745 5745 5745 5746 5747 5747 5748 5749 5749 5749 5750 5751 5751 5751 5752 5752 5752 5752 5751 5751 5750 5750 5749 5749 5748 5747 5747 5747 5748 5749 5749 5749 5748 5747 5746 5746 5746 5746 5749 5751 5753 5753 5753 5754 5756 5759 5760 5760 5761 5761 5762 5763 5763 5764 5766 5768 5770 5771 5772 5774 5775 5776 5777 5779 5780 5781 5781 5782 5783 5784 5785 5786 5787 5788 5788 5789 5789 5790 5790 5791 5791
5722 5725 5728 5729 5730 5731 5732 5733 5734 5735 5737 5739 5739 5740 5741 5742 5742 5743 5743 5744 5745 5745 5746 5746 5747 5747 5747 5747 5747 5748 5748 5748 5748 5748 5748 5747 5747 5746 5746 5745 5745 5744 5744 5744 5745 5745 5746 5746 5745 5743 5742 5743 5745 5746 5748 5749 5753 5754 5754 5753 5754 5756 5758 5759 5759 5760 5761 5762 5761 5762 5763 5765 5767 5769 5770 5771 5773 5774 5775 5776 5777 5778 5779 5780 5781 5781 5782 5783 5784 5785 5786 5786 5786 5787 5788 5788 5789
5720 5723 5726 5727 5726 5727 5729 5730 5731 5732 5734 5736 5736 5737 5738 5739 5740 5741 5741 5742 5743 5743 5744 5744 5744 5744 5744 5745 5744 5744 5745 5745 5745 5745 5745 5744 5743 5743 5743 5742 5741 5741 5740 5741 5741 5742 5743 5743 5742 5741 5739 5739 5741 5743 5744 5747 5751 5752 5752 5753 5753 5754 5756 5757 5757 5758 5760 5760 5760 5759 5760 5762 5763 5765 5766 5768 5770 5771 5772 5773 5774 5775 5776 5777 5778 5779 5780 5780 5781 5782 5783 5784 5784 5784 5785 5786 5787
5717 5720 5722 5723 5724 5725 5726 5727 5729 5731 5732 5733 5733 5734 5735 5737 5738 5738 5739 5739 5740 5741 5742 5742 5742 5742 5743 5743 5742 5742 5741 5741 5741 5742 5741 5741 5741 5741 5741 5740 5738 5738 5738 5738 5738 5739 5741 5741 5740 5739 5738 5737 5738 5739 5742 5745 5746 5747 5747 5749 5750 5752 5753 5754 5755 5756 5757 5757 5756 5756 5756 5758 5759 5761 5763 5764 5766 5767 5768 5769 5770 5772 5773 5775 5775 5776 5777 5778 5778 5779 5780 5780 5781 5782 5783 5784 5785
5715 5716 5717 5719 5721 5722 5723 5725 5726 5728 5729 5730 5731 5731 5732 5734 5735 5736 5736 5737 5739 5740 5740 5740 5740 5741 5741 5741 5740 5738 5738 5737 5737 5738 5738 5738 5738 5739 5739 5738 5738 5737 5737 5737 5737 5737 5738 5739 5739 5739 5737 5736 5736 5738 5741 5742 5742 5743 5744 5745 5747 5749 5751 5752 5753 5754 5754 5753 5753 5753 5754 5754 5756 5757 5759 5761 5763 5764 5765 5766 5767 5769 5770 5772 5772 5773 5774 5775 5775 5776 5777 5777 5778 5779 5781 5782 5783
5712 5713 5714 5716 5718 5720 5721 5722 5723 5725 5726 5727 5728 5729 5730 5731 5732 5733 5734 5735 5737 5737 5737 5738 5738 5738 5738 5737 5736 5736 5735 5735 5735 5735 5735 5735 5736 5736 5737 5737 5737 5737 5736 5736 5736 5736 5737 5737 5738 5738 5737 5736 5736 5737 5739 5739 5741 5743 5743 5743 5745 5747 5749 5750 5751 5751 5750 5752 5753 5752 5752 5753 5753 5754 5756 5758 5759 5761 5762 5764 5765 5766 5768 5769 5770 5771 5771 5772 5772 5773 5774 5775 5775 5777 5778 5779 5780